Year,Month,Day,Hour,Minute,Value (Times are PST for temperature in C)
2010,02,21,00,00,1.90
2010,02,21,00,01,1.90
2010,02,21,00,02,2.00
2010,02,21,00,03,2.10
2010,02,21,00,04,2.20
2010,02,21,00,05,2.20
2010,02,21,00,06,2.30
2010,02,21,00,07,2.40
2010,02,21,00,08,2.50
2010,02,21,00,09,2.60
2010,02,21,00,10,2.60
2010,02,21,00,11,2.70
2010,02,21,00,12,2.70
2010,02,21,00,13,2.70
2010,02,21,00,14,2.70
2010,02,21,00,15,2.60
2010,02,21,00,16,2.60
2010,02,21,00,17,2.60
2010,02,21,00,18,2.60
2010,02,21,00,19,2.60
2010,02,21,00,20,2.60
2010,02,21,00,21,2.60
2010,02,21,00,22,2.60
2010,02,21,00,23,2.50
2010,02,21,00,24,2.50
2010,02,21,00,25,2.60
2010,02,21,00,26,2.50
2010,02,21,00,27,2.50
2010,02,21,00,28,2.50
2010,02,21,00,29,2.50
2010,02,21,00,30,2.50
2010,02,21,00,31,2.50
2010,02,21,00,32,2.50
2010,02,21,00,33,2.50
2010,02,21,00,34,2.50
2010,02,21,00,35,2.40
2010,02,21,00,36,2.40
2010,02,21,00,37,2.40
2010,02,21,00,38,2.40
2010,02,21,00,39,2.40
2010,02,21,00,40,2.30
2010,02,21,00,41,2.30
2010,02,21,00,42,2.30
2010,02,21,00,43,2.20
2010,02,21,00,44,2.20
2010,02,21,00,45,2.10
2010,02,21,00,46,2.10
2010,02,21,00,47,2.10
2010,02,21,00,48,2.00
2010,02,21,00,49,2.00
2010,02,21,00,50,2.00
2010,02,21,00,51,2.00
2010,02,21,00,52,1.90
2010,02,21,00,53,1.90
2010,02,21,00,54,1.90
2010,02,21,00,55,1.90
2010,02,21,00,56,1.90
2010,02,21,00,57,1.90
2010,02,21,00,58,1.90
2010,02,21,00,59,2.00
2010,02,21,01,00,2.10
2010,02,21,01,01,2.10
2010,02,21,01,02,2.10
2010,02,21,01,03,2.20
2010,02,21,01,04,2.30
2010,02,21,01,05,2.50
2010,02,21,01,06,2.60
2010,02,21,01,07,2.70
2010,02,21,01,08,2.80
2010,02,21,01,09,2.90
2010,02,21,01,10,3.00
2010,02,21,01,11,3.10
2010,02,21,01,12,3.10
2010,02,21,01,13,3.20
2010,02,21,01,14,3.20
2010,02,21,01,15,3.30
2010,02,21,01,16,3.30
2010,02,21,01,17,3.20
2010,02,21,01,18,3.20
2010,02,21,01,19,3.20
2010,02,21,01,20,3.20
2010,02,21,01,21,3.20
2010,02,21,01,22,3.20
2010,02,21,01,23,3.20
2010,02,21,01,24,3.20
2010,02,21,01,25,3.20
2010,02,21,01,26,3.20
2010,02,21,01,27,3.20
2010,02,21,01,28,3.20
2010,02,21,01,29,3.10
2010,02,21,01,30,3.10
2010,02,21,01,31,3.00
2010,02,21,01,32,3.00
2010,02,21,01,33,3.00
2010,02,21,01,34,2.90
2010,02,21,01,35,2.90
2010,02,21,01,36,2.90
2010,02,21,01,37,2.80
2010,02,21,01,38,2.80
2010,02,21,01,39,2.80
2010,02,21,01,40,2.80
2010,02,21,01,41,2.80
2010,02,21,01,42,2.90
2010,02,21,01,43,2.90
2010,02,21,01,44,3.00
2010,02,21,01,45,3.10
2010,02,21,01,46,3.20
2010,02,21,01,47,3.30
2010,02,21,01,48,3.30
2010,02,21,01,49,3.40
2010,02,21,01,50,3.50
2010,02,21,01,51,3.70
2010,02,21,01,52,3.80
2010,02,21,01,53,3.90
2010,02,21,01,54,3.90
2010,02,21,01,55,4.00
2010,02,21,01,56,3.90
2010,02,21,01,57,3.90
2010,02,21,01,58,3.80
2010,02,21,01,59,3.70
2010,02,21,02,00,3.70
2010,02,21,02,01,3.60
2010,02,21,02,02,3.60
2010,02,21,02,03,3.50
2010,02,21,02,04,3.50
2010,02,21,02,05,3.50
2010,02,21,02,06,3.40
2010,02,21,02,07,3.40
2010,02,21,02,08,3.40
2010,02,21,02,09,3.50
2010,02,21,02,10,3.60
2010,02,21,02,11,3.70
2010,02,21,02,12,3.70
2010,02,21,02,13,3.70
2010,02,21,02,14,3.70
2010,02,21,02,15,3.60
2010,02,21,02,16,3.60
2010,02,21,02,17,3.60
2010,02,21,02,18,3.50
2010,02,21,02,19,3.50
2010,02,21,02,20,3.40
2010,02,21,02,21,3.40
2010,02,21,02,22,3.30
2010,02,21,02,23,3.40
2010,02,21,02,24,3.40
2010,02,21,02,25,3.50
2010,02,21,02,26,3.50
2010,02,21,02,27,3.50
2010,02,21,02,28,3.50
2010,02,21,02,29,3.50
2010,02,21,02,30,3.40
2010,02,21,02,31,3.40
2010,02,21,02,32,3.40
2010,02,21,02,33,3.30
2010,02,21,02,34,3.40
2010,02,21,02,35,3.40
2010,02,21,02,36,3.50
2010,02,21,02,37,3.50
2010,02,21,02,38,3.60
2010,02,21,02,39,3.60
2010,02,21,02,40,3.70
2010,02,21,02,41,3.70
2010,02,21,02,42,3.70
2010,02,21,02,43,3.70
2010,02,21,02,44,3.60
2010,02,21,02,45,3.60
2010,02,21,02,46,3.50
2010,02,21,02,47,3.40
2010,02,21,02,48,3.30
2010,02,21,02,49,3.20
2010,02,21,02,50,3.20
2010,02,21,02,51,3.10
2010,02,21,02,52,3.00
2010,02,21,02,53,2.90
2010,02,21,02,54,2.80
2010,02,21,02,55,2.80
2010,02,21,02,56,2.70
2010,02,21,02,57,2.70
2010,02,21,02,58,2.60
2010,02,21,02,59,2.50
2010,02,21,03,00,2.50
2010,02,21,03,01,2.40
2010,02,21,03,02,2.30
2010,02,21,03,03,2.30
2010,02,21,03,04,2.20
2010,02,21,03,05,2.10
2010,02,21,03,06,2.10
2010,02,21,03,07,2.00
2010,02,21,03,08,2.00
2010,02,21,03,09,1.90
2010,02,21,03,10,1.80
2010,02,21,03,11,1.80
2010,02,21,03,12,1.80
2010,02,21,03,13,1.70
2010,02,21,03,14,1.70
2010,02,21,03,15,1.70
2010,02,21,03,16,1.70
2010,02,21,03,17,1.70
2010,02,21,03,18,1.70
2010,02,21,03,19,1.70
2010,02,21,03,20,1.70
2010,02,21,03,21,1.70
2010,02,21,03,22,1.70
2010,02,21,03,23,1.80
2010,02,21,03,24,1.70
2010,02,21,03,25,1.70
2010,02,21,03,26,1.70
2010,02,21,03,27,1.70
2010,02,21,03,28,1.70
2010,02,21,03,29,1.70
2010,02,21,03,30,1.80
2010,02,21,03,31,1.80
2010,02,21,03,32,1.90
2010,02,21,03,33,2.00
2010,02,21,03,34,2.00
2010,02,21,03,35,2.10
2010,02,21,03,36,2.10
2010,02,21,03,37,2.10
2010,02,21,03,38,2.10
2010,02,21,03,39,2.20
2010,02,21,03,40,2.20
2010,02,21,03,41,2.30
2010,02,21,03,42,2.30
2010,02,21,03,43,2.40
2010,02,21,03,44,2.40
2010,02,21,03,45,2.40
2010,02,21,03,46,2.40
2010,02,21,03,47,2.40
2010,02,21,03,48,2.50
2010,02,21,03,49,2.50
2010,02,21,03,50,2.50
2010,02,21,03,51,2.40
2010,02,21,03,52,2.40
2010,02,21,03,53,2.40
2010,02,21,03,54,2.40
2010,02,21,03,55,2.50
2010,02,21,03,56,2.50
2010,02,21,03,57,2.50
2010,02,21,03,58,2.50
2010,02,21,03,59,2.50
2010,02,21,04,00,2.40
2010,02,21,04,01,2.40
2010,02,21,04,02,2.40
2010,02,21,04,03,2.50
2010,02,21,04,04,2.50
2010,02,21,04,05,2.60
2010,02,21,04,06,2.60
2010,02,21,04,07,2.70
2010,02,21,04,08,2.70
2010,02,21,04,09,2.70
2010,02,21,04,10,2.70
2010,02,21,04,11,2.70
2010,02,21,04,12,2.60
2010,02,21,04,13,2.60
2010,02,21,04,14,2.50
2010,02,21,04,15,2.40
2010,02,21,04,16,2.40
2010,02,21,04,17,2.40
2010,02,21,04,18,2.30
2010,02,21,04,19,2.30
2010,02,21,04,20,2.30
2010,02,21,04,21,2.30
2010,02,21,04,22,2.30
2010,02,21,04,23,2.30
2010,02,21,04,24,2.30
2010,02,21,04,25,2.30
2010,02,21,04,26,2.30
2010,02,21,04,27,2.40
2010,02,21,04,28,2.40
2010,02,21,04,29,2.40
2010,02,21,04,30,2.40
2010,02,21,04,31,2.40
2010,02,21,04,32,2.40
2010,02,21,04,33,2.40
2010,02,21,04,34,2.50
2010,02,21,04,35,2.40
2010,02,21,04,36,2.40
2010,02,21,04,37,2.40
2010,02,21,04,38,2.30
2010,02,21,04,39,2.30
2010,02,21,04,40,2.20
2010,02,21,04,41,2.20
2010,02,21,04,42,2.10
2010,02,21,04,43,2.10
2010,02,21,04,44,2.10
2010,02,21,04,45,2.10
2010,02,21,04,46,2.10
2010,02,21,04,47,2.10
2010,02,21,04,48,2.10
2010,02,21,04,49,2.10
2010,02,21,04,50,2.00
2010,02,21,04,51,2.00
2010,02,21,04,52,1.90
2010,02,21,04,53,1.90
2010,02,21,04,54,1.90
2010,02,21,04,55,1.90
2010,02,21,04,56,1.90
2010,02,21,04,57,1.90
2010,02,21,04,58,1.90
2010,02,21,04,59,1.90
2010,02,21,05,00,1.90
2010,02,21,05,01,1.90
2010,02,21,05,02,1.90
2010,02,21,05,03,1.80
2010,02,21,05,04,1.80
2010,02,21,05,05,1.80
2010,02,21,05,06,1.90
2010,02,21,05,07,1.90
2010,02,21,05,08,1.90
2010,02,21,05,09,2.00
2010,02,21,05,10,2.00
2010,02,21,05,11,2.10
2010,02,21,05,12,2.20
2010,02,21,05,13,2.20
2010,02,21,05,14,2.20
2010,02,21,05,15,2.20
2010,02,21,05,16,2.20
2010,02,21,05,17,2.20
2010,02,21,05,18,2.20
2010,02,21,05,19,2.20
2010,02,21,05,20,2.20
2010,02,21,05,21,2.20
2010,02,21,05,22,2.20
2010,02,21,05,23,2.20
2010,02,21,05,24,2.20
2010,02,21,05,25,2.20
2010,02,21,05,26,2.20
2010,02,21,05,27,2.20
2010,02,21,05,28,2.20
2010,02,21,05,29,2.20
2010,02,21,05,30,2.20
2010,02,21,05,31,2.20
2010,02,21,05,32,2.20
2010,02,21,05,33,2.10
2010,02,21,05,34,2.10
2010,02,21,05,35,2.10
2010,02,21,05,36,2.10
2010,02,21,05,37,2.10
2010,02,21,05,38,2.10
2010,02,21,05,39,2.10
2010,02,21,05,40,2.10
2010,02,21,05,41,2.10
2010,02,21,05,42,2.00
2010,02,21,05,43,2.00
2010,02,21,05,44,2.00
2010,02,21,05,45,2.00
2010,02,21,05,46,2.00
2010,02,21,05,47,2.00
2010,02,21,05,48,2.00
2010,02,21,05,49,2.00
2010,02,21,05,50,2.10
2010,02,21,05,51,2.10
2010,02,21,05,52,2.10
2010,02,21,05,53,2.10
2010,02,21,05,54,2.10
2010,02,21,05,55,2.10
2010,02,21,05,56,2.10
2010,02,21,05,57,2.10
2010,02,21,05,58,2.10
2010,02,21,05,59,2.00
2010,02,21,06,00,2.00
2010,02,21,06,01,2.00
2010,02,21,06,02,2.00
2010,02,21,06,03,2.00
2010,02,21,06,04,1.90
2010,02,21,06,05,1.90
2010,02,21,06,06,1.90
2010,02,21,06,07,1.90
2010,02,21,06,08,1.80
2010,02,21,06,09,1.80
2010,02,21,06,10,1.70
2010,02,21,06,11,1.60
2010,02,21,06,12,1.60
2010,02,21,06,13,1.50
2010,02,21,06,14,1.40
2010,02,21,06,15,1.40
2010,02,21,06,16,1.30
2010,02,21,06,17,1.30
2010,02,21,06,18,1.30
2010,02,21,06,19,1.30
2010,02,21,06,20,1.30
2010,02,21,06,21,1.20
2010,02,21,06,22,1.20
2010,02,21,06,23,1.10
2010,02,21,06,24,1.10
2010,02,21,06,25,1.10
2010,02,21,06,26,1.10
2010,02,21,06,27,1.10
2010,02,21,06,28,1.10
2010,02,21,06,29,1.10
2010,02,21,06,30,1.10
2010,02,21,06,31,1.10
2010,02,21,06,32,1.10
2010,02,21,06,33,1.10
2010,02,21,06,34,1.10
2010,02,21,06,35,1.10
2010,02,21,06,36,1.10
2010,02,21,06,37,1.10
2010,02,21,06,38,1.10
2010,02,21,06,39,1.10
2010,02,21,06,40,1.10
2010,02,21,06,41,1.10
2010,02,21,06,42,1.10
2010,02,21,06,43,1.10
2010,02,21,06,44,1.00
2010,02,21,06,45,1.00
2010,02,21,06,46,1.00
2010,02,21,06,47,1.00
2010,02,21,06,48,0.90
2010,02,21,06,49,0.90
2010,02,21,06,50,0.90
2010,02,21,06,51,1.00
2010,02,21,06,52,0.90
2010,02,21,06,53,0.90
2010,02,21,06,54,0.90
2010,02,21,06,55,0.90
2010,02,21,06,56,0.90
2010,02,21,06,57,0.90
2010,02,21,06,58,0.90
2010,02,21,06,59,0.90
2010,02,21,07,00,1.00
2010,02,21,07,01,1.00
2010,02,21,07,02,1.00
2010,02,21,07,03,1.00
2010,02,21,07,04,0.90
2010,02,21,07,05,0.90
2010,02,21,07,06,0.90
2010,02,21,07,07,0.90
2010,02,21,07,08,0.90
2010,02,21,07,09,0.90
2010,02,21,07,10,0.90
2010,02,21,07,11,0.90
2010,02,21,07,12,1.00
2010,02,21,07,13,1.00
2010,02,21,07,14,1.00
2010,02,21,07,15,1.00
2010,02,21,07,16,1.00
2010,02,21,07,17,1.00
2010,02,21,07,18,1.10
2010,02,21,07,19,1.10
2010,02,21,07,20,1.10
2010,02,21,07,21,1.10
2010,02,21,07,22,1.20
2010,02,21,07,23,1.20
2010,02,21,07,24,1.20
2010,02,21,07,25,1.20
2010,02,21,07,26,1.20
2010,02,21,07,27,1.20
2010,02,21,07,28,1.20
2010,02,21,07,29,1.20
2010,02,21,07,30,1.30
2010,02,21,07,31,1.30
2010,02,21,07,32,1.30
2010,02,21,07,33,1.30
2010,02,21,07,34,1.40
2010,02,21,07,35,1.40
2010,02,21,07,36,1.40
2010,02,21,07,37,1.40
2010,02,21,07,38,1.50
2010,02,21,07,39,1.50
2010,02,21,07,40,1.50
2010,02,21,07,41,1.50
2010,02,21,07,42,1.50
2010,02,21,07,43,1.40
2010,02,21,07,44,1.40
2010,02,21,07,45,1.50
2010,02,21,07,46,1.60
2010,02,21,07,47,1.60
2010,02,21,07,48,1.70
2010,02,21,07,49,1.70
2010,02,21,07,50,1.70
2010,02,21,07,51,1.70
2010,02,21,07,52,1.70
2010,02,21,07,53,1.70
2010,02,21,07,54,1.70
2010,02,21,07,55,1.70
2010,02,21,07,56,1.80
2010,02,21,07,57,1.80
2010,02,21,07,58,1.80
2010,02,21,07,59,1.80
2010,02,21,08,00,1.80
2010,02,21,08,01,1.80
2010,02,21,08,02,1.80
2010,02,21,08,03,1.80
2010,02,21,08,04,1.80
2010,02,21,08,05,1.80
2010,02,21,08,06,1.80
2010,02,21,08,07,1.80
2010,02,21,08,08,1.90
2010,02,21,08,09,1.90
2010,02,21,08,10,2.00
2010,02,21,08,11,2.00
2010,02,21,08,12,2.10
2010,02,21,08,13,2.20
2010,02,21,08,14,2.30
2010,02,21,08,15,2.30
2010,02,21,08,16,2.40
2010,02,21,08,17,2.40
2010,02,21,08,18,2.40
2010,02,21,08,19,2.50
2010,02,21,08,20,2.50
2010,02,21,08,21,2.60
2010,02,21,08,22,2.60
2010,02,21,08,23,2.70
2010,02,21,08,24,2.70
2010,02,21,08,25,2.80
2010,02,21,08,26,2.80
2010,02,21,08,27,2.90
2010,02,21,08,28,2.90
2010,02,21,08,29,3.00
2010,02,21,08,30,3.10
2010,02,21,08,31,3.10
2010,02,21,08,32,3.20
2010,02,21,08,33,3.20
2010,02,21,08,34,3.20
2010,02,21,08,35,3.20
2010,02,21,08,36,3.20
2010,02,21,08,37,3.40
2010,02,21,08,38,3.50
2010,02,21,08,39,3.50
2010,02,21,08,40,3.60
2010,02,21,08,41,3.60
2010,02,21,08,42,3.70
2010,02,21,08,43,3.70
2010,02,21,08,44,3.80
2010,02,21,08,45,3.80
2010,02,21,08,46,3.90
2010,02,21,08,47,3.90
2010,02,21,08,48,4.00
2010,02,21,08,49,4.00
2010,02,21,08,50,4.10
2010,02,21,08,51,4.10
2010,02,21,08,52,4.20
2010,02,21,08,53,4.20
2010,02,21,08,54,4.30
2010,02,21,08,55,4.40
2010,02,21,08,56,4.40
2010,02,21,08,57,4.50
2010,02,21,08,58,4.50
2010,02,21,08,59,4.60
2010,02,21,09,00,4.70
2010,02,21,09,01,4.80
2010,02,21,09,02,4.80
2010,02,21,09,03,4.90
2010,02,21,09,04,4.90
2010,02,21,09,05,5.00
2010,02,21,09,06,5.10
2010,02,21,09,07,5.20
2010,02,21,09,08,5.20
2010,02,21,09,09,5.30
2010,02,21,09,10,5.40
2010,02,21,09,11,5.50
2010,02,21,09,12,5.50
2010,02,21,09,13,5.60
2010,02,21,09,14,5.70
2010,02,21,09,15,5.80
2010,02,21,09,16,5.90
2010,02,21,09,17,6.10
2010,02,21,09,18,6.20
2010,02,21,09,19,6.30
2010,02,21,09,20,6.30
2010,02,21,09,21,6.40
2010,02,21,09,22,6.50
2010,02,21,09,23,6.60
2010,02,21,09,24,6.70
2010,02,21,09,25,6.80
2010,02,21,09,26,6.90
2010,02,21,09,27,6.90
2010,02,21,09,28,7.00
2010,02,21,09,29,7.10
2010,02,21,09,30,7.20
2010,02,21,09,31,7.30
2010,02,21,09,32,7.40
2010,02,21,09,33,7.40
2010,02,21,09,34,7.50
2010,02,21,09,35,7.60
2010,02,21,09,36,7.60
2010,02,21,09,37,7.70
2010,02,21,09,38,7.70
2010,02,21,09,39,7.70
2010,02,21,09,40,7.70
2010,02,21,09,41,7.80
2010,02,21,09,42,7.80
2010,02,21,09,43,7.80
2010,02,21,09,44,7.80
2010,02,21,09,45,7.80
2010,02,21,09,46,7.90
2010,02,21,09,47,7.90
2010,02,21,09,48,8.00
2010,02,21,09,49,8.10
2010,02,21,09,50,8.10
2010,02,21,09,51,8.10
2010,02,21,09,52,8.20
2010,02,21,09,53,8.20
2010,02,21,09,54,8.20
2010,02,21,09,55,8.20
2010,02,21,09,56,8.20
2010,02,21,09,57,8.20
2010,02,21,09,58,8.20
2010,02,21,09,59,8.20
2010,02,21,10,00,8.30
2010,02,21,10,01,8.30
2010,02,21,10,02,8.30
2010,02,21,10,03,8.20
2010,02,21,10,04,8.20
2010,02,21,10,05,8.30
2010,02,21,10,06,8.30
2010,02,21,10,07,8.30
2010,02,21,10,08,8.30
2010,02,21,10,09,8.30
2010,02,21,10,10,8.30
2010,02,21,10,11,8.30
2010,02,21,10,12,8.40
2010,02,21,10,13,8.40
2010,02,21,10,14,8.40
2010,02,21,10,15,8.40
2010,02,21,10,16,8.40
2010,02,21,10,17,8.40
2010,02,21,10,18,8.40
2010,02,21,10,19,8.40
2010,02,21,10,20,8.40
2010,02,21,10,21,8.40
2010,02,21,10,22,8.30
2010,02,21,10,23,8.30
2010,02,21,10,24,8.40
2010,02,21,10,25,8.40
2010,02,21,10,26,8.40
2010,02,21,10,27,8.40
2010,02,21,10,28,8.50
2010,02,21,10,29,8.50
2010,02,21,10,30,8.50
2010,02,21,10,31,8.50
2010,02,21,10,32,8.60
2010,02,21,10,33,8.60
2010,02,21,10,34,8.70
2010,02,21,10,35,8.70
2010,02,21,10,36,8.80
2010,02,21,10,37,8.80
2010,02,21,10,38,8.80
2010,02,21,10,39,8.90
2010,02,21,10,40,8.90
2010,02,21,10,41,8.90
2010,02,21,10,42,8.90
2010,02,21,10,43,9.00
2010,02,21,10,44,9.10
2010,02,21,10,45,9.10
2010,02,21,10,46,9.10
2010,02,21,10,47,9.10
2010,02,21,10,48,9.10
2010,02,21,10,49,9.10
2010,02,21,10,50,9.10
2010,02,21,10,51,9.10
2010,02,21,10,52,9.20
2010,02,21,10,53,9.10
2010,02,21,10,54,9.10
2010,02,21,10,55,9.10
2010,02,21,10,56,9.10
2010,02,21,10,57,9.20
2010,02,21,10,58,9.20
2010,02,21,10,59,9.20
2010,02,21,11,00,9.30
2010,02,21,11,01,9.30
2010,02,21,11,02,9.40
2010,02,21,11,03,9.30
2010,02,21,11,04,9.30
2010,02,21,11,05,9.20
2010,02,21,11,06,9.20
2010,02,21,11,07,9.20
2010,02,21,11,08,9.20
2010,02,21,11,09,9.20
2010,02,21,11,10,9.20
2010,02,21,11,11,9.20
2010,02,21,11,12,9.20
2010,02,21,11,13,9.10
2010,02,21,11,14,9.10
2010,02,21,11,15,9.10
2010,02,21,11,16,9.10
2010,02,21,11,17,9.10
2010,02,21,11,18,9.10
2010,02,21,11,19,9.10
2010,02,21,11,20,9.20
2010,02,21,11,21,9.30
2010,02,21,11,22,9.30
2010,02,21,11,23,9.30
2010,02,21,11,24,9.30
2010,02,21,11,25,9.20
2010,02,21,11,26,9.20
2010,02,21,11,27,9.20
2010,02,21,11,28,9.20
2010,02,21,11,29,9.20
2010,02,21,11,30,9.10
2010,02,21,11,31,9.10
2010,02,21,11,32,9.00
2010,02,21,11,33,8.90
2010,02,21,11,34,8.90
2010,02,21,11,35,8.90
2010,02,21,11,36,8.80
2010,02,21,11,37,8.80
2010,02,21,11,38,8.90
2010,02,21,11,39,8.90
2010,02,21,11,40,9.00
2010,02,21,11,41,9.00
2010,02,21,11,42,9.10
2010,02,21,11,43,9.10
2010,02,21,11,44,9.20
2010,02,21,11,45,9.20
2010,02,21,11,46,9.20
2010,02,21,11,47,9.10
2010,02,21,11,48,9.10
2010,02,21,11,49,9.10
2010,02,21,11,50,9.20
2010,02,21,11,51,9.20
2010,02,21,11,52,9.30
2010,02,21,11,53,9.40
2010,02,21,11,54,9.40
2010,02,21,11,55,9.40
2010,02,21,11,56,9.40
2010,02,21,11,57,9.40
2010,02,21,11,58,9.40
2010,02,21,11,59,9.30
2010,02,21,12,00,9.30
2010,02,21,12,01,9.30
2010,02,21,12,02,9.30
2010,02,21,12,03,9.30
2010,02,21,12,04,9.30
2010,02,21,12,05,9.40
2010,02,21,12,06,9.40
2010,02,21,12,07,9.40
2010,02,21,12,08,9.40
2010,02,21,12,09,9.40
2010,02,21,12,10,9.40
2010,02,21,12,11,9.40
2010,02,21,12,12,9.40
2010,02,21,12,13,9.40
2010,02,21,12,14,9.40
2010,02,21,12,15,9.40
2010,02,21,12,16,9.50
2010,02,21,12,17,9.50
2010,02,21,12,18,9.50
2010,02,21,12,19,9.50
2010,02,21,12,20,9.50
2010,02,21,12,21,9.50
2010,02,21,12,22,9.60
2010,02,21,12,23,9.60
2010,02,21,12,24,9.70
2010,02,21,12,25,9.70
2010,02,21,12,26,9.70
2010,02,21,12,27,9.80
2010,02,21,12,28,9.90
2010,02,21,12,29,9.90
2010,02,21,12,30,9.90
2010,02,21,12,31,9.90
2010,02,21,12,32,9.80
2010,02,21,12,33,9.80
2010,02,21,12,34,9.70
2010,02,21,12,35,9.60
2010,02,21,12,36,9.60
2010,02,21,12,37,9.60
2010,02,21,12,38,9.60
2010,02,21,12,39,9.50
2010,02,21,12,40,9.50
2010,02,21,12,41,9.60
2010,02,21,12,42,9.60
2010,02,21,12,43,9.60
2010,02,21,12,44,9.50
2010,02,21,12,45,9.50
2010,02,21,12,46,9.50
2010,02,21,12,47,9.40
2010,02,21,12,48,9.40
2010,02,21,12,49,9.50
2010,02,21,12,50,9.50
2010,02,21,12,51,9.50
2010,02,21,12,52,9.50
2010,02,21,12,53,9.50
2010,02,21,12,54,9.50
2010,02,21,12,55,9.50
2010,02,21,12,56,9.50
2010,02,21,12,57,9.60
2010,02,21,12,58,9.60
2010,02,21,12,59,9.60
2010,02,21,13,00,9.60
2010,02,21,13,01,9.60
2010,02,21,13,02,9.60
2010,02,21,13,03,9.60
2010,02,21,13,04,9.70
2010,02,21,13,05,9.70
2010,02,21,13,06,9.80
2010,02,21,13,07,9.80
2010,02,21,13,08,9.80
2010,02,21,13,09,9.70
2010,02,21,13,10,9.70
2010,02,21,13,11,9.70
2010,02,21,13,12,9.70
2010,02,21,13,13,9.70
2010,02,21,13,14,9.70
2010,02,21,13,15,9.70
2010,02,21,13,16,9.70
2010,02,21,13,17,9.60
2010,02,21,13,18,9.60
2010,02,21,13,19,9.60
2010,02,21,13,20,9.60
2010,02,21,13,21,9.70
2010,02,21,13,22,9.70
2010,02,21,13,23,9.70
2010,02,21,13,24,9.70
2010,02,21,13,25,9.70
2010,02,21,13,26,9.70
2010,02,21,13,27,9.70
2010,02,21,13,28,9.70
2010,02,21,13,29,9.70
2010,02,21,13,30,9.70
2010,02,21,13,31,9.70
2010,02,21,13,32,9.70
2010,02,21,13,33,9.70
2010,02,21,13,34,9.80
2010,02,21,13,35,9.80
2010,02,21,13,36,9.80
2010,02,21,13,37,9.90
2010,02,21,13,38,9.90
2010,02,21,13,39,10.00
2010,02,21,13,40,10.00
2010,02,21,13,41,10.00
2010,02,21,13,42,10.00
2010,02,21,13,43,10.00
2010,02,21,13,44,10.10
2010,02,21,13,45,10.10
2010,02,21,13,46,10.10
2010,02,21,13,47,10.10
2010,02,21,13,48,10.10
2010,02,21,13,49,10.10
2010,02,21,13,50,10.10
2010,02,21,13,51,10.10
2010,02,21,13,52,10.10
2010,02,21,13,53,10.10
2010,02,21,13,54,10.10
2010,02,21,13,55,10.10
2010,02,21,13,56,10.10
2010,02,21,13,57,10.10
2010,02,21,13,58,10.10
2010,02,21,13,59,10.10
2010,02,21,14,00,10.10
2010,02,21,14,01,10.10
2010,02,21,14,02,10.20
2010,02,21,14,03,10.20
2010,02,21,14,04,10.10
2010,02,21,14,05,10.20
2010,02,21,14,06,10.20
2010,02,21,14,07,10.20
2010,02,21,14,08,10.30
2010,02,21,14,09,10.30
2010,02,21,14,10,10.20
2010,02,21,14,11,10.20
2010,02,21,14,12,10.20
2010,02,21,14,13,10.20
2010,02,21,14,14,10.10
2010,02,21,14,15,10.10
2010,02,21,14,16,10.10
2010,02,21,14,17,10.10
2010,02,21,14,18,10.10
2010,02,21,14,19,10.10
2010,02,21,14,20,10.10
2010,02,21,14,21,10.10
2010,02,21,14,22,10.10
2010,02,21,14,23,10.10
2010,02,21,14,24,10.10
2010,02,21,14,25,10.10
2010,02,21,14,26,10.10
2010,02,21,14,27,10.10
2010,02,21,14,28,10.10
2010,02,21,14,29,10.10
2010,02,21,14,30,10.10
2010,02,21,14,31,10.10
2010,02,21,14,32,10.10
2010,02,21,14,33,10.10
2010,02,21,14,34,10.20
2010,02,21,14,35,10.20
2010,02,21,14,36,10.20
2010,02,21,14,37,10.20
2010,02,21,14,38,10.20
2010,02,21,14,39,10.10
2010,02,21,14,40,10.10
2010,02,21,14,41,10.20
2010,02,21,14,42,10.30
2010,02,21,14,43,10.30
2010,02,21,14,44,10.30
2010,02,21,14,45,10.30
2010,02,21,14,46,10.20
2010,02,21,14,47,10.20
2010,02,21,14,48,10.20
2010,02,21,14,49,10.20
2010,02,21,14,50,10.20
2010,02,21,14,51,10.20
2010,02,21,14,52,10.20
2010,02,21,14,53,10.30
2010,02,21,14,54,10.30
2010,02,21,14,55,10.30
2010,02,21,14,56,10.30
2010,02,21,14,57,10.20
2010,02,21,14,58,10.20
2010,02,21,14,59,10.20
2010,02,21,15,00,10.20
2010,02,21,15,01,10.20
2010,02,21,15,02,10.20
2010,02,21,15,03,10.20
2010,02,21,15,04,10.20
2010,02,21,15,05,10.20
2010,02,21,15,06,10.20
2010,02,21,15,07,10.20
2010,02,21,15,08,10.10
2010,02,21,15,09,10.10
2010,02,21,15,10,10.10
2010,02,21,15,11,10.10
2010,02,21,15,12,10.10
2010,02,21,15,13,10.00
2010,02,21,15,14,10.00
2010,02,21,15,15,10.00
2010,02,21,15,16,10.00
2010,02,21,15,17,9.90
2010,02,21,15,18,9.90
2010,02,21,15,19,9.90
2010,02,21,15,20,9.90
2010,02,21,15,21,9.90
2010,02,21,15,22,10.00
2010,02,21,15,23,10.10
2010,02,21,15,24,10.20
2010,02,21,15,25,10.20
2010,02,21,15,26,10.20
2010,02,21,15,27,10.30
2010,02,21,15,28,10.30
2010,02,21,15,29,10.40
2010,02,21,15,30,10.40
2010,02,21,15,31,10.40
2010,02,21,15,32,10.30
2010,02,21,15,33,10.20
2010,02,21,15,34,10.10
2010,02,21,15,35,10.00
2010,02,21,15,36,10.00
2010,02,21,15,37,10.00
2010,02,21,15,38,10.00
2010,02,21,15,39,10.10
2010,02,21,15,40,10.20
2010,02,21,15,41,10.20
2010,02,21,15,42,10.30
2010,02,21,15,43,10.30
2010,02,21,15,44,10.30
2010,02,21,15,45,10.30
2010,02,21,15,46,10.30
2010,02,21,15,47,10.30
2010,02,21,15,48,10.20
2010,02,21,15,49,10.20
2010,02,21,15,50,10.20
2010,02,21,15,51,10.20
2010,02,21,15,52,10.10
2010,02,21,15,53,10.00
2010,02,21,15,54,9.90
2010,02,21,15,55,9.80
2010,02,21,15,56,9.70
2010,02,21,15,57,9.70
2010,02,21,15,58,9.60
2010,02,21,15,59,9.50
2010,02,21,16,00,9.50
2010,02,21,16,01,9.50
2010,02,21,16,02,9.50
2010,02,21,16,03,9.50
2010,02,21,16,04,9.50
2010,02,21,16,05,9.40
2010,02,21,16,06,9.40
2010,02,21,16,07,9.40
2010,02,21,16,08,9.40
2010,02,21,16,09,9.40
2010,02,21,16,10,9.40
2010,02,21,16,11,9.30
2010,02,21,16,12,9.30
2010,02,21,16,13,9.30
2010,02,21,16,14,9.30
2010,02,21,16,15,9.30
2010,02,21,16,16,9.20
2010,02,21,16,17,9.20
2010,02,21,16,18,9.20
2010,02,21,16,19,9.20
2010,02,21,16,20,9.20
2010,02,21,16,21,9.20
2010,02,21,16,22,9.20
2010,02,21,16,23,9.10
2010,02,21,16,24,9.10
2010,02,21,16,25,9.10
2010,02,21,16,26,9.10
2010,02,21,16,27,9.10
2010,02,21,16,28,9.00
2010,02,21,16,29,9.00
2010,02,21,16,30,9.00
2010,02,21,16,31,9.00
2010,02,21,16,32,9.00
2010,02,21,16,33,9.00
2010,02,21,16,34,9.00
2010,02,21,16,35,9.00
2010,02,21,16,36,9.00
2010,02,21,16,37,9.10
2010,02,21,16,38,9.10
2010,02,21,16,39,9.10
2010,02,21,16,40,9.10
2010,02,21,16,41,9.10
2010,02,21,16,42,9.10
2010,02,21,16,43,9.10
2010,02,21,16,44,9.10
2010,02,21,16,45,9.10
2010,02,21,16,46,9.10
2010,02,21,16,47,9.10
2010,02,21,16,48,9.10
2010,02,21,16,49,9.10
2010,02,21,16,50,9.10
2010,02,21,16,51,9.10
2010,02,21,16,52,9.10
2010,02,21,16,53,9.00
2010,02,21,16,54,9.00
2010,02,21,16,55,9.00
2010,02,21,16,56,9.00
2010,02,21,16,57,9.00
2010,02,21,16,58,9.00
2010,02,21,16,59,9.00
2010,02,21,17,00,9.00
2010,02,21,17,01,9.00
2010,02,21,17,02,9.00
2010,02,21,17,03,9.00
2010,02,21,17,04,9.00
2010,02,21,17,05,8.90
2010,02,21,17,06,8.90
2010,02,21,17,07,8.90
2010,02,21,17,08,8.90
2010,02,21,17,09,8.90
2010,02,21,17,10,8.90
2010,02,21,17,11,8.90
2010,02,21,17,12,8.90
2010,02,21,17,13,8.80
2010,02,21,17,14,8.80
2010,02,21,17,15,8.80
2010,02,21,17,16,8.80
2010,02,21,17,17,8.70
2010,02,21,17,18,8.70
2010,02,21,17,19,8.70
2010,02,21,17,20,8.70
2010,02,21,17,21,8.70
2010,02,21,17,22,8.60
2010,02,21,17,23,8.60
2010,02,21,17,24,8.60
2010,02,21,17,25,8.60
2010,02,21,17,26,8.50
2010,02,21,17,27,8.50
2010,02,21,17,28,8.40
2010,02,21,17,29,8.40
2010,02,21,17,30,8.40
2010,02,21,17,31,8.30
2010,02,21,17,32,8.30
2010,02,21,17,33,8.20
2010,02,21,17,34,8.20
2010,02,21,17,35,8.20
2010,02,21,17,36,8.10
2010,02,21,17,37,8.10
2010,02,21,17,38,8.00
2010,02,21,17,39,7.90
2010,02,21,17,40,7.90
2010,02,21,17,41,7.80
2010,02,21,17,42,7.80
2010,02,21,17,43,7.70
2010,02,21,17,44,7.70
2010,02,21,17,45,7.70
2010,02,21,17,46,7.60
2010,02,21,17,47,7.50
2010,02,21,17,48,7.50
2010,02,21,17,49,7.40
2010,02,21,17,50,7.40
2010,02,21,17,51,7.30
2010,02,21,17,52,7.30
2010,02,21,17,53,7.20
2010,02,21,17,54,7.20
2010,02,21,17,55,7.20
2010,02,21,17,56,7.10
2010,02,21,17,57,7.10
2010,02,21,17,58,7.10
2010,02,21,17,59,7.00
2010,02,21,18,00,7.00